FW7644 Weather Reports


time (UTC)temp
F
wind
direction
speed
knots
gust
knots
rain 1hr
in
rain 24hr
in
rain mn
in
humidity
%
barometer
mb
20260510185856 57 0.0 0.0 0.00 0.88 0.35 74 1019.4
20260510185355 58 0.0 0.0 0.00 0.88 0.35 75 1019.3
20260510184853 57 0.0 0.0 0.00 0.88 0.35 78 1019.2
20260510184351 56 0.0 0.0 0.00 0.88 0.35 79 1019.2
20260510183849 57 0.0 0.0 0.00 0.88 0.35 77 1019.2
20260510183347 57 0.0 0.0 0.00 0.88 0.35 79 1019.2
20260510182845 58 0.0 0.0 0.00 0.88 0.35 77 1019.2
20260510182344 57 0.0 0.0 0.00 0.88 0.35 79 1019.3
20260510181841 58 0.0 0.0 0.00 0.88 0.35 75 1019.4
20260510181340 59 0.0 0.0 0.00 0.88 0.35 76 1019.3
20260510180838 58 0.0 0.0 0.00 0.88 0.35 80 1019.2
20260510180336 56 0.0 0.0 0.00 0.88 0.35 79 1019.1
20260510175834 58 0.0 0.0 0.00 0.89 0.35 77 1019.2
20260510175333 57 0.0 0.0 0.00 0.89 0.35 82 1019.1
20260510174831 53 0.0 0.0 0.00 0.89 0.35 88 1019.2
20260510174329 53 0.0 0.0 0.00 0.89 0.35 90 1019.4
20260510173827 53 0.0 0.0 0.00 0.89 0.35 91 1019.5
20260510173325 56 0.0 0.0 0.00 0.89 0.35 90 1019.5
20260510172823 54 0.0 0.0 0.00 0.89 0.35 93 1019.5
20260510172322 53 0.0 0.0 0.00 0.89 0.35 99 1019.6
20260510171820 52 0.0 0.0 0.00 0.89 0.35 95 1019.7
20260510171318 53 0.0 0.0 0.00 0.89 0.35 99 1019.7
20260510170817 50 0.0 0.0 0.00 0.89 0.35 99 1019.6
20260510170315 50 0.0 0.0 0.00 0.89 0.35 99 1019.6
20260510165813 50 0.0 0.0 0.00 0.93 0.35 99 1019.7
20260510165311 50 0.0 0.0 0.00 0.93 0.35 99 1019.7
20260510164809 50 0.0 0.0 0.00 0.93 0.35 99 1019.9
20260510164307 50 0.0 0.0 0.00 0.93 0.35 99 1019.9
20260510163805 51 0.0 0.0 0.00 0.93 0.35 99 1019.8
20260510163303 51 0.0 0.0 0.00 0.93 0.35 99 1019.9
20260510162801 52 0.0 0.0 0.00 0.93 0.35 99 1020.3
20260510162259 50 0.0 0.0 0.00 0.93 0.35 99 1020.3
20260510161757 51 0.0 0.0 0.00 0.93 0.35 99 1020.5
20260510161256 50 0.0 0.0 0.00 0.93 0.35 99 1020.4
20260510160754 50 0.0 0.0 0.00 0.93 0.35 99 1020.5
20260510160252 49 0.0 0.0 0.00 0.93 0.35 99 1020.6
20260510155750 47 0.0 0.0 0.00 0.94 0.35 99 1020.8
20260510155248 47 0.0 0.0 0.00 0.94 0.35 99 1020.8
20260510154746 48 0.0 0.0 0.00 0.94 0.35 99 1021.0
20260510154244 47 0.0 0.0 0.00 0.94 0.35 99 1021.2
20260510153742 48 0.0 0.0 0.00 0.94 0.35 99 1021.2
20260510153240 46 0.0 0.0 0.00 0.94 0.35 99 1021.3
20260510152739 47 0.0 0.0 0.00 0.94 0.35 99 1021.3
20260510152237 47 0.0 0.0 0.00 0.94 0.35 99 1021.3
20260510151735 46 0.0 0.0 0.00 0.94 0.35 99 1021.2
20260510151233 46 0.0 0.0 0.00 0.94 0.35 99 1021.3
20260510150731 45 0.0 0.0 0.00 0.94 0.35 99 1021.7
20260510150229 45 0.0 0.0 0.00 0.94 0.35 99 1021.6
20260510145727 45 0.0 0.0 0.00 0.95 0.35 99 1021.6
20260510145226 45 0.0 0.0 0.00 0.95 0.35 99 1021.8
20260510144724 45 0.0 0.0 0.00 0.95 0.35 99 1021.7
20260510144223 45 0.0 0.0 0.00 0.95 0.35 99 1022.1
20260510143721 45 0.0 0.0 0.00 0.95 0.35 99 1022.1
20260510143219 45 0.0 0.0 0.00 0.95 0.35 99 1021.9
20260510142718 44 0.0 0.0 0.00 0.95 0.35 99 1022.1
20260510142216 44 0.0 0.0 0.00 0.95 0.35 99 1022.3
20260510141714 44 0.0 0.0 0.00 0.95 0.35 99 1022.2
20260510141212 44 0.0 0.0 0.00 0.95 0.35 99 1022.3
20260510140710 44 0.0 0.0 0.01 0.95 0.35 99 1022.3
20260510140208 44 0.0 0.0 0.01 0.95 0.35 99 1022.1
20260510135706 44 0.0 0.0 0.01 1.04 0.35 99 1022.1
20260510135204 44 0.0 0.0 0.01 1.04 0.35 99 1021.7
20260510134702 44 0.0 0.0 0.01 1.04 0.35 99 1021.6
20260510134200 44 0.0 0.0 0.01 1.04 0.35 99 1021.7
20260510133658 44 0.0 0.0 0.01 1.04 0.35 99 1022.4
20260510133156 44 0.0 0.0 0.01 1.04 0.35 99 1022.2
20260510132655 44 0.0 0.0 0.01 1.04 0.35 99 1021.6
20260510132152 44 0.0 0.0 0.01 1.04 0.35 99 1022.2
20260510131651 44 0.0 0.0 0.01 1.04 0.35 99 1022.2
20260510131149 44 0.0 0.0 0.01 1.04 0.35 99 1021.7
20260510130647 44 0.0 0.0 0.01 1.04 0.35 99 1022.2
20260510130145 43 0.0 0.0 0.00 1.03 0.34 99 1022.3
20260510125643 44 0.0 0.0 0.00 1.24 0.34 99 1022.2
20260510125141 44 0.0 0.0 0.00 1.24 0.34 99 1022.6
20260510124639 44 0.0 0.0 0.00 1.24 0.34 99 1022.7
20260510124137 44 0.0 0.0 0.00 1.24 0.34 99 1022.7
20260510123635 44 0.0 0.0 0.00 1.24 0.34 99 1022.5
20260510123133 44 0.0 0.0 0.00 1.24 0.34 99 1022.1
20260510122631 43 0.0 0.0 0.00 1.24 0.34 99 1022.1
20260510122129 44 0.0 0.0 0.00 1.24 0.34 99 1022.1
20260510121627 43 0.0 0.0 0.00 1.24 0.34 99 1022.1
20260510121125 44 0.0 0.0 0.00 1.24 0.34 99 1022.0
20260510120624 44 0.0 0.0 0.00 1.24 0.34 99 1022.0
20260510120122 44 0.0 0.0 0.00 1.24 0.34 99 1022.0
20260510115619 43 0.0 0.0 0.00 1.39 0.34 99 1022.0
20260510115118 43 0.0 0.0 0.00 1.39 0.34 99 1022.0
20260510114616 43 0.0 0.0 0.00 1.39 0.34 99 1022.0
20260510114114 43 0.0 0.0 0.00 1.39 0.34 99 1022.2
20260510113612 43 0.0 0.0 0.00 1.39 0.34 99 1022.4
20260510113110 43 0.0 0.0 0.00 1.39 0.34 99 1022.2
20260510112609 43 0.0 0.0 0.00 1.39 0.34 99 1022.1
20260510112107 43 0.0 0.0 0.00 1.39 0.34 99 1022.2
20260510111605 43 0.0 0.0 0.00 1.39 0.34 99 1022.4
20260510111103 43 0.0 0.0 0.00 1.39 0.34 99 1022.2
20260510110602 43 0.0 0.0 0.00 1.39 0.34 99 1022.0
20260510110100 43 0.0 0.0 0.00 1.39 0.34 99 1021.8
20260510105558 43 0.0 0.0 0.00 1.43 0.34 99 1021.6
20260510105056 43 0.0 0.0 0.00 1.43 0.34 99 1021.9
20260510104555 43 0.0 0.0 0.00 1.43 0.34 99 1021.8
20260510104053 43 0.0 0.0 0.00 1.43 0.34 99 1021.6
20260510103551 43 0.0 0.0 0.00 1.43 0.34 99 1021.6
20260510103050 43 0.0 0.0 0.00 1.43 0.34 99 1021.5
20260510102548 43 0.0 0.0 0.00 1.43 0.34 99 1021.3
20260510102046 43 0.0 0.0 0.00 1.43 0.34 99 1021.0
20260510101544 43 0.0 0.0 0.00 1.43 0.34 99 1021.3
20260510101042 43 0.0 0.0 0.00 1.43 0.34 99 1021.1
20260510100541 43 0.0 0.0 0.00 1.43 0.34 99 1020.8
20260510100039 43 0.0 0.0 0.00 1.43 0.34 99 1020.7
20260510095537 43 0.0 0.0 0.00 1.51 0.34 99 1020.7
20260510095037 43 0.0 0.0 0.00 1.51 0.34 99 1020.6
20260510094535 43 0.0 0.0 0.00 1.51 0.34 99 1020.3
20260510094033 43 0.0 0.0 0.00 1.51 0.34 99 1020.4
20260510093532 43 0.0 0.0 0.00 1.51 0.34 99 1020.3
20260510093029 43 0.0 0.0 0.00 1.51 0.34 99 1020.5
20260510092528 43 0.0 0.0 0.00 1.51 0.34 99 1020.3
20260510092026 43 0.0 0.0 0.00 1.51 0.34 99 1020.3
20260510091525 43 0.0 0.0 0.00 1.51 0.34 99 1020.3
20260510091024 43 0.0 0.0 0.00 1.51 0.34 99 1020.5
20260510090522 43 0.0 0.0 0.00 1.51 0.34 99 1020.3
20260510090021 43 0.0 0.0 0.00 1.51 0.34 99 1020.3
20260510085520 43 0.0 0.0 0.00 1.51 0.34 99 1020.1
20260510085018 44 0.0 0.0 0.00 1.51 0.34 99 1020.0
20260510084516 43 0.0 0.0 0.01 1.51 0.34 99 1019.9
20260510084014 43 0.0 0.0 0.01 1.51 0.34 99 1020.0
20260510083513 43 0.0 0.0 0.01 1.51 0.34 99 1019.9
20260510083011 43 0.0 0.0 0.01 1.51 0.34 99 1019.8
20260510082509 43 0.0 0.0 0.01 1.51 0.34 99 1019.6
20260510082007 43 0.0 0.0 0.01 1.51 0.34 99 1019.7
20260510081506 43 0.0 0.0 0.02 1.51 0.34 99 1019.7
20260510081004 43 0.0 0.0 0.02 1.51 0.34 99 1019.7
20260510080502 43 0.0 0.0 0.02 1.51 0.34 99 1019.8
20260510080000 43 0.0 0.0 0.02 1.51 0.34 99 1019.8
20260510075458 43 0.0 0.0 0.04 1.51 0.34 99 1019.8
20260510074957 43 0.0 0.0 0.04 1.51 0.34 99 1020.0
20260510074455 43 0.0 0.0 0.04 1.51 0.34 99 1020.0
20260510073954 43 0.0 0.0 0.04 1.50 0.33 99 1019.8
20260510073452 43 0.0 0.0 0.04 1.50 0.33 99 1020.0
20260510072950 43 0.0 0.0 0.04 1.50 0.33 99 1020.0
20260510072448 43 0.0 0.0 0.04 1.50 0.33 99 1020.0
20260510071947 43 0.0 0.0 0.06 1.50 0.33 99 1020.0
20260510071446 43 0.0 0.0 0.05 1.49 0.32 99 1020.0
20260510070944 43 0.0 0.0 0.07 1.49 0.32 99 1019.9
20260510070443 43 0.0 0.0 0.07 1.49 0.32 99 1020.0
20260510065940 43 0.0 0.0 0.07 1.48 0.31 99 1019.8
20260510065439 43 0.0 0.0 0.06 1.47 0.31 99 1020.1
20260510064937 43 0.0 0.0 0.08 1.47 0.31 99 1020.2
20260510064435 43 0.0 0.0 0.08 1.47 0.31 99 1020.3
20260510063933 43 0.0 0.0 0.10 1.47 0.31 99 1020.2
20260510063432 44 0.0 0.0 0.10 1.47 0.31 99 1020.2
20260510062930 44 0.0 0.0 0.11 1.46 0.30 99 1020.0
20260510062428 44 0.0 0.0 0.11 1.46 0.30 99 1019.9
20260510061926 44 0.0 0.0 0.12 1.46 0.30 99 1019.9
20260510061424 45 0.0 0.0 0.11 1.45 0.29 99 1019.8
20260510060922 45 0.0 0.0 0.11 1.44 0.28 99 1019.9
20260510060421 44 0.0 0.0 0.10 1.43 0.27 99 1019.8
20260510055919 44 0.0 0.0 0.10 1.42 0.26 99 1019.4
20260510055417 44 0.0 0.0 0.10 1.42 0.26 99 1019.2
20260510054916 44 0.0 0.0 0.11 1.41 0.25 99 1019.5
20260510054414 44 0.0 0.0 0.10 1.40 0.24 99 1020.0
20260510053913 44 0.0 0.0 0.11 1.39 0.23 99 1020.3
20260510053411 44 0.0 0.0 0.10 1.38 0.22 99 1020.3
20260510052910 44 0.0 0.0 0.09 1.36 0.20 99 1020.2
20260510052408 44 0.0 0.0 0.08 1.35 0.19 99 1020.4
20260510051906 44 0.0 0.0 0.10 1.35 0.19 99 1020.0
20260510051405 44 0.0 0.0 0.09 1.34 0.18 99 1019.8
20260510050903 44 0.0 0.0 0.11 1.34 0.18 99 1019.8
20260510050402 44 0.0 0.0 0.11 1.34 0.18 99 1019.9
20260510045900 44 0.0 0.0 0.12 1.33 0.17 99 1019.8
20260510045358 44 0.0 0.0 0.12 1.33 0.17 99 1019.6
20260510044856 44 0.0 0.0 0.13 1.32 0.16 99 1019.6
20260510044354 44 0.0 0.0 0.12 1.31 0.15 99 1019.7
20260510043853 44 0.0 0.0 0.12 1.30 0.14 99 1019.9
20260510043351 44 0.0 0.0 0.11 1.29 0.13 99 1020.2
20260510042849 44 0.0 0.0 0.11 1.28 0.12 99 1020.2
20260510042347 44 0.0 0.0 0.10 1.27 0.11 99 1020.2
20260510041846 44 0.0 0.0 0.10 1.26 0.10 99 1020.3
20260510041344 44 0.0 0.0 0.10 1.26 0.10 99 1020.2
20260510040842 44 0.0 0.0 0.08 1.24 0.08 99 1020.4
20260510040341 44 0.0 0.0 0.08 1.24 0.08 99 1020.3
20260510035839 44 0.0 0.0 0.07 1.25 0.07 99 1020.4
20260510035337 44 0.0 0.0 0.06 1.24 0.06 99 1020.4
20260510034836 44 0.0 0.0 0.06 1.23 0.05 99 1020.4
20260510034334 44 0.0 0.0 0.05 1.22 0.04 99 1020.6
20260510033832 44 0.0 0.0 0.06 1.21 0.03 99 1020.5
20260510033331 44 0.0 0.0 0.06 1.21 0.03 99 1020.5
20260510032829 44 0.0 0.0 0.06 1.20 0.02 99 1020.6
20260510032327 44 0.0 0.0 0.06 1.20 0.02 99 1020.6
20260510031825 44 0.0 0.0 0.05 1.19 0.01 99 1020.5
20260510031323 44 0.0 0.0 0.04 1.18 0.00 99 1020.3
20260510030822 44 0.0 0.0 0.05 1.18 0.00 99 1020.5
20260510030320 44 0.0 0.0 0.05 1.18 0.00 99 1020.7
20260510025818 44 0.0 0.0 0.06 1.36 1.18 99 1020.7
20260510025316 44 0.0 0.0 0.06 1.36 1.18 99 1020.7
20260510024814 44 0.0 0.0 0.08 1.36 1.18 99 1020.8
20260510024313 44 0.0 0.0 0.08 1.36 1.18 99 1021.0
20260510023811 44 0.0 0.0 0.09 1.35 1.17 99 1021.1
20260510023309 44 0.0 0.0 0.08 1.34 1.16 99 1021.2
20260510022808 44 0.0 0.0 0.09 1.33 1.15 99 1021.2
20260510022307 44 0.0 0.0 0.09 1.33 1.15 99 1021.1
20260510021805 44 0.0 0.0 0.10 1.32 1.14 99 1021.3
20260510021303 44 0.0 0.0 0.10 1.32 1.14 99 1021.3
20260510020801 44 0.0 0.0 0.12 1.32 1.14 99 1021.4
20260510020259 44 0.0 0.0 0.11 1.31 1.13 99 1021.4
20260510015757 44 0.0 0.0 0.13 1.60 1.13 99 1021.4
20260510015255 44 0.0 0.0 0.12 1.59 1.12 99 1021.3
20260510014753 44 0.0 0.0 0.12 1.59 1.12 99 1021.4
20260510014251 44 0.0 0.0 0.11 1.58 1.11 99 1021.7
20260510013749 44 0.0 0.0 0.11 1.56 1.09 99 1021.8
20260510013247 44 0.0 0.0 0.10 1.56 1.08 99 1021.9
20260510012745 44 0.0 0.0 0.12 1.56 1.08 99 1022.1
20260510012242 44 0.0 0.0 0.10 1.54 1.06 99 1022.1
20260510011741 45 0.0 0.0 0.09 1.53 1.05 99 1021.6
20260510011239 45 0.0 0.0 0.08 1.52 1.04 99 1021.5
20260510010737 45 0.0 0.0 0.08 1.52 1.04 99 1021.2
20260510010234 45 0.0 0.0 0.07 1.51 1.03 99 1021.1
20260510005732 45 0.0 0.0 0.06 1.63 1.02 99 1021.1
20260510005230 45 0.0 0.0 0.05 1.62 1.01 99 1020.9
20260510004729 45 0.0 0.0 0.05 1.61 1.00 99 1020.7
20260510004227 45 0.0 0.0 0.05 1.61 1.00 99 1020.4
20260510003724 45 0.0 0.0 0.04 1.60 0.99 99 1020.4
20260510003222 45 0.0 0.0 0.03 1.59 0.98 99 1020.5
20260510002720 45 0.0 0.0 0.03 1.58 0.97 99 1020.5
20260510002218 45 0.0 0.0 0.02 1.57 0.96 99 1020.5
20260510001716 45 0.0 0.0 0.03 1.57 0.96 99 1020.5
20260510001214 45 0.0 0.0 0.03 1.57 0.96 99 1020.5
20260510000712 45 0.0 0.0 0.03 1.57 0.96 99 1020.5
20260510000211 45 0.0 0.0 0.03 1.57 0.96 99 1020.5
20260509235708 45 0.0 0.0 0.03 1.70 0.96 99 1020.4
20260509235206 45 0.0 0.0 0.03 1.70 0.96 99 1020.3
20260509234704 46 0.0 0.0 0.03 1.69 0.95 99 1020.3
20260509234202 46 0.0 0.0 0.03 1.69 0.95 99 1020.1
20260509233700 46 0.0 0.0 0.03 1.69 0.95 99 1020.1
20260509233158 46 0.0 0.0 0.03 1.69 0.95 99 1020.0
20260509232656 46 0.0 0.0 0.04 1.69 0.95 99 1019.8
20260509232154 46 0.0 0.0 0.04 1.69 0.95 99 1019.7
20260509231652 46 0.0 0.0 0.06 1.68 0.94 99 1019.8
20260509231150 46 0.0 0.0 0.05 1.67 0.94 99 1020.1
20260509230648 46 0.0 0.0 0.10 1.67 0.94 99 1020.1
20260509230146 47 0.0 0.0 0.10 1.67 0.94 99 1020.3
20260509225644 47 0.0 0.0 0.14 1.71 0.94 99 1020.0
20260509225142 47 0.0 0.0 0.14 1.71 0.94 99 1019.9
20260509224641 47 0.0 0.0 0.15 1.70 0.93 99 1020.0
20260509224139 48 0.0 0.0 0.15 1.70 0.93 99 1019.8
20260509223637 48 0.0 0.0 0.17 1.70 0.93 99 1019.5
20260509223135 48 0.0 0.0 0.17 1.70 0.93 99 1018.8
20260509222634 48 0.0 0.0 0.18 1.70 0.93 99 1018.8
20260509222131 48 0.0 0.0 0.17 1.69 0.92 99 1018.7
20260509221630 49 0.0 0.0 0.18 1.68 0.91 99 1018.6
20260509221128 49 0.0 0.0 0.16 1.66 0.89 99 1018.4
20260509220626 49 0.0 0.0 0.15 1.64 0.87 99 1018.7
20260509220124 49 0.0 0.0 0.12 1.61 0.84 99 1018.7
20260509215622 49 0.0 0.0 0.11 1.61 0.82 99 1018.9
20260509215120 49 0.0 0.0 0.10 1.60 0.81 99 1018.7
20260509214618 49 0.0 0.0 0.09 1.58 0.79 99 1018.6
20260509214116 49 0.0 0.0 0.08 1.57 0.78 99 1018.6
20260509213614 49 0.0 0.0 0.08 1.56 0.77 99 1018.5
20260509213112 49 0.0 0.0 0.08 1.56 0.77 99 1018.4
20260509212610 50 0.0 0.0 0.07 1.56 0.76 99 1018.3
20260509212109 49 0.0 0.0 0.06 1.55 0.75 99 1018.3
20260509211607 50 0.0 0.0 0.05 1.54 0.74 99 1018.4
20260509211105 50 0.0 0.0 0.04 1.53 0.73 99 1018.4
20260509210603 50 0.0 0.0 0.05 1.53 0.73 99 1018.2
20260509210100 50 0.0 0.0 0.04 1.52 0.72 99 1018.3
20260509205559 50 0.0 0.0 0.03 1.51 0.71 99 1018.1
20260509205057 50 0.0 0.0 0.03 1.51 0.71 99 1018.0
20260509204556 50 0.0 0.0 0.03 1.50 0.70 99 1018.1
20260509204054 50 0.0 0.0 0.03 1.50 0.70 99 1018.0
20260509203551 50 0.0 0.0 0.02 1.49 0.69 99 1017.8
20260509203050 50 0.0 0.0 0.02 1.49 0.69 99 1017.5
20260509202548 50 0.0 0.0 0.02 1.49 0.69 99 1017.7
20260509202046 50 0.0 0.0 0.02 1.49 0.69 99 1017.6
20260509201544 50 0.0 0.0 0.02 1.49 0.69 99 1017.5
20260509201042 51 0.0 0.0 0.02 1.49 0.69 99 1017.5
20260509200541 51 0.0 0.0 0.02 1.49 0.69 99 1017.5
20260509200038 51 0.0 0.0 0.02 1.49 0.69 99 1017.6
20260509195536 51 0.0 0.0 0.01 1.50 0.68 99 1017.5
20260509195035 51 0.0 0.0 0.01 1.50 0.68 99 1017.4
20260509194532 51 0.0 0.0 0.01 1.50 0.68 99 1017.6
20260509194031 51 0.0 0.0 0.00 1.49 0.67 99 1017.7
20260509193529 51 0.0 0.0 0.00 1.49 0.67 99 1017.6
20260509193027 51 0.0 0.0 0.00 1.49 0.67 99 1017.5
20260509192525 51 0.0 0.0 0.00 1.49 0.67 99 1017.1
20260509192023 51 0.0 0.0 0.00 1.49 0.67 99 1016.9
20260509191521 51 0.0 0.0 0.00 1.49 0.67 99 1016.8
20260509191019 51 0.0 0.0 0.00 1.49 0.67 99 1016.6
20260509190517 51 0.0 0.0 0.01 1.49 0.67 99 1016.5
20260509190015 51 0.0 0.0 0.01 1.49 0.67 99 1016.4